COSMOS 1275 DEB, 39960

Orbit data source: Space-Track

COSMOS 1275 DEB, 39960 is space debris in LEO originally from a launch on Thu, 04 Jun 1981 UTC launched from the Plesetsk Missile And Space Complex (PKMTR). Debris objects in space refer to the collection of defunct objects orbiting the Earth. Examples of debris include non-operational satellites, rocket bodies, and fragments generated from explosions, collisions, or faulty payload assembly.

Loading next visibility...
Identifier
39960, 1981-053NW
Orbit
LEO
Country
Flag of CISCIS
Related business
Manufacturer
Unknown
Mission
Spacecraft
Bus & Motor
Unknown
Mass
Unknown
Launch date (UTC)
1981-06-04 (45 years ago)
Launch vehicle
Unknown
Launch site
Plesetsk Missile And Space Complex (PKMTR)
Object type
Payload
Rocket body
Debris
Shape & HBR
Unknown shape, 0.1 m
Radar Cross Section
Small (<0.1 m²)

Expand to show TLE details & history
Last TLE update: 2 weeks ago

TLE from 2 weeks ago
0 COSMOS 1275 DEB
1 39960U 81053NW  26022.43258288  .00000819  00000-0  11173-2 0  9999
2 39960  83.1429 276.6740 0239930  58.6930 303.7460 13.46664896552553
Epoch: 2026-01-22T10:22Z
TLE epoch observation values (Epoch: 2026-01-22T10:22:55.160Z)
Latitude
-0.00007°
Longitude
-0.84167°
Altitude
990.965 km
Speed
7.404 km/s
True Right ascension
18h 26m 41s
True Declination
0° 00' 00"
Sunlit
Object was in daylight at epoch
Visualization orbit readout
Latitude
Unknown
Longitude
Unknown
Altitude
Unknown
Speed
Unknown
Apparent Right ascension
Unknown
Apparent Declination
Unknown
Sunlit
N/A
Visualization observer readout
Local Sidereal Time
14:19:56
Azimuth
Unknown
Elevation
Unknown
Doppler factor
Unknown
Orbital elements
Apogee altitude
1,260.717 km
Perigee altitude
902.748 km
Semi-major axis
7,459.87 km
Eccentricity
0.02399
Inclination
83.1429°
RAAN
276.674°
Arg. of periapsis
58.693°
True anomaly
301.42179°
Mean anomaly
303.746°
Eccentric anomaly
302.58772°
Mean motion
3.36858 °/min
Orbital period
106.87 mins
BSTAR
0.0011173
Loading maneuver chart data...
Computing Atmospheric mass density...
Loading historical data...
Loading historical data...
Loading historical data...
Loading historical data...
Loading historical data...
Loading historical data...
Loading historical data...

Documentation

Showing up to 5 results
|